���t,����,�O�C���x,�����t���O,�O�C���Ύ��x,�����t���O,���ԋ�C���x,�����t���O,���ԑ��Ύ��x,�����t���O,�g�C���^���N����,�����t���O,���֋�C���x,�����t���O,��g�[�����x,�����t���O
2003/10/1,0:00,17.1 ,0,66.0 ,0,24.1 ,0,53.2 ,0,23.4 ,0,=,2,23.2 ,0
2003/10/1,0:15,17.1 ,0,67.0 ,0,24.1 ,0,53.4 ,0,23.4 ,0,=,2,23.1 ,0
2003/10/1,0:30,16.8 ,0,69.0 ,0,24.0 ,0,53.4 ,0,23.4 ,0,=,2,23.0 ,0
2003/10/1,0:45,16.7 ,0,70.0 ,0,23.9 ,0,53.5 ,0,23.4 ,0,=,2,22.9 ,0
2003/10/1,1:00,16.6 ,0,70.0 ,0,23.8 ,0,53.6 ,0,23.5 ,0,=,2,22.8 ,0
2003/10/1,1:15,16.2 ,0,73.0 ,0,23.8 ,0,53.6 ,0,23.5 ,0,=,2,22.7 ,0
2003/10/1,1:30,15.9 ,0,75.0 ,0,23.7 ,0,53.7 ,0,23.5 ,0,=,2,22.6 ,0
2003/10/1,1:45,15.9 ,0,74.0 ,0,23.6 ,0,53.9 ,0,23.5 ,0,=,2,22.5 ,0
2003/10/1,2:00,15.9 ,0,74.0 ,0,23.5 ,0,54.0 ,0,23.5 ,0,=,2,22.4 ,0
2003/10/1,2:15,15.9 ,0,73.0 ,0,23.5 ,0,54.1 ,0,23.5 ,0,=,2,22.3 ,0
2003/10/1,2:30,16.0 ,0,72.0 ,0,23.4 ,0,54.2 ,0,23.6 ,0,=,2,22.2 ,0
2003/10/1,2:45,15.8 ,0,73.0 ,0,23.3 ,0,54.3 ,0,23.6 ,0,=,2,22.1 ,0
2003/10/1,3:00,15.6 ,0,74.0 ,0,23.2 ,0,54.4 ,0,23.6 ,0,=,2,22.0 ,0
2003/10/1,3:15,15.5 ,0,75.0 ,0,23.2 ,0,54.5 ,0,23.6 ,0,=,2,21.9 ,0
2003/10/1,3:30,15.3 ,0,76.0 ,0,23.1 ,0,54.6 ,0,23.6 ,0,=,2,21.8 ,0
2003/10/1,3:45,15.2 ,0,77.0 ,0,23.0 ,0,54.8 ,0,23.6 ,0,=,2,21.7 ,0
2003/10/1,4:00,15.2 ,0,76.0 ,0,22.9 ,0,54.8 ,0,23.6 ,0,=,2,21.6 ,0
2003/10/1,4:15,15.1 ,0,76.0 ,0,22.9 ,0,54.8 ,0,23.6 ,0,=,2,21.5 ,0
2003/10/1,4:30,14.8 ,0,78.0 ,0,22.8 ,0,55.0 ,0,23.6 ,0,=,2,21.4 ,0
2003/10/1,4:45,14.8 ,0,78.0 ,0,22.7 ,0,55.0 ,0,23.6 ,0,=,2,21.4 ,0
2003/10/1,5:00,15.0 ,0,76.0 ,0,22.7 ,0,55.1 ,0,23.6 ,0,=,2,21.3 ,0
2003/10/1,5:15,15.1 ,0,75.0 ,0,22.6 ,0,55.1 ,0,23.7 ,0,=,2,21.2 ,0
2003/10/1,5:30,15.0 ,0,75.0 ,0,22.5 ,0,55.3 ,0,23.7 ,0,=,2,21.1 ,0
2003/10/1,5:45,14.9 ,0,77.0 ,0,22.5 ,0,55.4 ,0,23.7 ,0,=,2,21.0 ,0
2003/10/1,6:00,15.1 ,0,74.0 ,0,22.4 ,0,55.5 ,0,23.7 ,0,=,2,20.9 ,0
2003/10/1,6:15,15.1 ,0,75.0 ,0,22.3 ,0,55.5 ,0,23.7 ,0,=,2,20.9 ,0
2003/10/1,6:30,16.2 ,0,73.0 ,0,22.2 ,0,55.6 ,0,23.7 ,0,=,2,20.8 ,0
2003/10/1,6:45,16.1 ,0,70.0 ,0,22.2 ,0,55.6 ,0,23.7 ,0,=,2,20.7 ,0
2003/10/1,7:00,16.1 ,0,72.0 ,0,22.1 ,0,55.7 ,0,23.7 ,0,=,2,20.6 ,0
2003/10/1,7:15,16.6 ,0,71.0 ,0,22.0 ,0,55.9 ,0,23.7 ,0,=,2,20.6 ,0
2003/10/1,7:30,17.1 ,0,68.0 ,0,22.0 ,0,56.0 ,0,23.7 ,0,=,2,20.6 ,0
2003/10/1,7:45,17.6 ,0,66.0 ,0,21.9 ,0,56.1 ,0,23.7 ,0,=,2,20.6 ,0
2003/10/1,8:00,18.1 ,0,62.0 ,0,21.9 ,0,56.2 ,0,23.7 ,0,=,2,20.7 ,0
2003/10/1,8:15,19.0 ,0,59.0 ,0,21.8 ,0,56.3 ,0,23.7 ,0,=,2,20.8 ,0
2003/10/1,8:30,19.5 ,0,58.0 ,0,21.8 ,0,56.5 ,0,23.7 ,0,=,2,20.9 ,0
2003/10/1,8:45,20.3 ,0,57.0 ,0,21.9 ,0,56.6 ,0,23.7 ,0,=,2,21.0 ,0
2003/10/1,9:00,20.9 ,0,54.0 ,0,21.9 ,0,56.6 ,0,23.7 ,0,=,2,21.1 ,0
2003/10/1,9:15,21.4 ,0,53.0 ,0,21.9 ,0,56.6 ,0,23.7 ,0,=,2,21.2 ,0
2003/10/1,9:30,22.0 ,0,51.0 ,0,22.0 ,0,56.5 ,0,23.7 ,0,=,2,21.3 ,0
2003/10/1,9:45,22.5 ,0,50.0 ,0,22.1 ,0,56.5 ,0,23.7 ,0,=,2,21.4 ,0
2003/10/1,10:00,22.9 ,0,51.0 ,0,22.2 ,0,56.4 ,0,23.7 ,0,=,2,21.5 ,0
2003/10/1,10:15,23.3 ,0,50.0 ,0,22.3 ,0,56.3 ,0,23.7 ,0,=,2,21.7 ,0
2003/10/1,10:30,23.9 ,0,48.0 ,0,22.5 ,0,56.2 ,0,23.7 ,0,=,2,21.8 ,0
2003/10/1,10:45,24.0 ,0,48.0 ,0,22.6 ,0,56.0 ,0,23.7 ,0,=,2,22.0 ,0
2003/10/1,11:00,24.3 ,0,47.0 ,0,22.8 ,0,55.7 ,0,23.7 ,0,=,2,22.1 ,0
2003/10/1,11:15,24.6 ,0,48.0 ,0,22.9 ,0,55.6 ,0,23.7 ,0,=,2,22.3 ,0
2003/10/1,11:30,24.9 ,0,45.0 ,0,23.1 ,0,55.5 ,0,23.7 ,0,=,2,22.5 ,0
2003/10/1,11:45,25.6 ,0,44.0 ,0,23.2 ,0,55.2 ,0,23.7 ,0,=,2,22.6 ,0
2003/10/1,12:00,26.1 ,0,43.0 ,0,23.4 ,0,55.1 ,0,23.7 ,0,=,2,22.8 ,0
2003/10/1,12:15,26.1 ,0,43.0 ,0,23.5 ,0,54.9 ,0,23.7 ,0,=,2,22.9 ,0
2003/10/1,12:30,26.6 ,0,43.0 ,0,23.7 ,0,54.8 ,0,23.7 ,0,=,2,23.1 ,0
2003/10/1,12:45,26.7 ,0,43.0 ,0,23.8 ,0,54.6 ,0,23.7 ,0,=,2,23.2 ,0
2003/10/1,13:00,26.5 ,0,44.0 ,0,24.0 ,0,54.5 ,0,23.7 ,0,=,2,23.4 ,0
2003/10/1,13:15,26.7 ,0,42.0 ,0,24.1 ,0,54.4 ,0,23.7 ,0,=,2,23.6 ,0
2003/10/1,13:30,26.7 ,0,43.0 ,0,24.3 ,0,54.3 ,0,23.7 ,0,=,2,23.7 ,0
2003/10/1,13:45,26.6 ,0,45.0 ,0,24.3 ,0,54.2 ,0,23.7 ,0,=,2,23.9 ,0
2003/10/1,14:00,26.6 ,0,43.0 ,0,24.5 ,0,54.2 ,0,23.7 ,0,=,2,24.0 ,0
2003/10/1,14:15,26.9 ,0,41.0 ,0,24.6 ,0,54.0 ,0,23.7 ,0,=,2,24.2 ,0
2003/10/1,14:30,26.8 ,0,42.0 ,0,24.7 ,0,54.0 ,0,23.7 ,0,=,2,24.3 ,0
2003/10/1,14:45,26.6 ,0,41.0 ,0,24.7 ,0,54.0 ,0,23.7 ,0,=,2,24.4 ,0
2003/10/1,15:00,26.4 ,0,43.0 ,0,24.8 ,0,54.0 ,0,23.7 ,0,=,2,24.6 ,0
2003/10/1,15:15,26.6 ,0,45.0 ,0,24.9 ,0,54.0 ,0,23.7 ,0,=,2,24.7 ,0
2003/10/1,15:30,26.7 ,0,42.0 ,0,25.0 ,0,53.9 ,0,23.7 ,0,=,2,24.8 ,0
2003/10/1,15:45,26.7 ,0,39.0 ,0,25.1 ,0,53.8 ,0,23.8 ,0,=,2,24.9 ,0
2003/10/1,16:00,26.8 ,0,40.0 ,0,25.2 ,0,53.9 ,0,23.8 ,0,=,2,25.0 ,0
2003/10/1,16:15,26.5 ,0,43.0 ,0,25.3 ,0,53.9 ,0,23.8 ,0,=,2,25.1 ,0
2003/10/1,16:30,26.3 ,0,44.0 ,0,25.3 ,0,53.8 ,0,23.8 ,0,=,2,25.3 ,0
2003/10/1,16:45,25.8 ,0,44.0 ,0,25.4 ,0,53.9 ,0,23.8 ,0,=,2,25.4 ,0
2003/10/1,17:00,25.4 ,0,44.0 ,0,25.4 ,0,53.8 ,0,23.8 ,0,=,2,25.5 ,0
2003/10/1,17:15,25.2 ,0,45.0 ,0,25.4 ,0,53.7 ,0,23.8 ,0,=,2,25.6 ,0
2003/10/1,17:30,24.8 ,0,48.0 ,0,25.5 ,0,53.7 ,0,23.8 ,0,=,2,25.7 ,0
2003/10/1,17:45,24.2 ,0,50.0 ,0,25.5 ,0,53.7 ,0,23.9 ,0,=,2,25.7 ,0
2003/10/1,18:00,23.7 ,0,53.0 ,0,25.5 ,0,53.6 ,0,23.9 ,0,=,2,25.8 ,0
2003/10/1,18:15,23.4 ,0,54.0 ,0,25.5 ,0,53.6 ,0,23.9 ,0,=,2,25.8 ,0
2003/10/1,18:30,23.1 ,0,55.0 ,0,25.5 ,0,53.6 ,0,23.9 ,0,=,2,25.8 ,0
2003/10/1,18:45,22.8 ,0,56.0 ,0,25.4 ,0,53.8 ,0,23.9 ,0,=,2,25.8 ,0
2003/10/1,19:00,22.6 ,0,57.0 ,0,25.4 ,0,53.9 ,0,23.9 ,0,=,2,25.8 ,0
2003/10/1,19:15,22.4 ,0,59.0 ,0,25.4 ,0,54.1 ,0,23.9 ,0,=,2,25.8 ,0
2003/10/1,19:30,22.2 ,0,61.0 ,0,25.3 ,0,54.2 ,0,23.9 ,0,=,2,25.7 ,0
2003/10/1,19:45,22.1 ,0,61.0 ,0,25.3 ,0,54.4 ,0,24.0 ,0,=,2,25.7 ,0
2003/10/1,20:00,22.0 ,0,63.0 ,0,25.2 ,0,54.4 ,0,24.0 ,0,=,2,25.5 ,0
2003/10/1,20:15,21.9 ,0,63.0 ,0,25.1 ,0,54.6 ,0,24.0 ,0,=,2,25.3 ,0
2003/10/1,20:30,21.7 ,0,62.0 ,0,25.1 ,0,54.8 ,0,24.0 ,0,=,2,25.1 ,0
2003/10/1,20:45,21.6 ,0,62.0 ,0,25.0 ,0,54.9 ,0,24.0 ,0,=,2,25.0 ,0
2003/10/1,21:00,21.3 ,0,64.0 ,0,25.0 ,0,55.2 ,0,24.0 ,0,=,2,24.9 ,0
2003/10/1,21:15,21.4 ,0,61.0 ,0,24.9 ,0,55.5 ,0,24.1 ,0,=,2,24.8 ,0
2003/10/1,21:30,20.9 ,0,67.0 ,0,24.9 ,0,55.7 ,0,24.0 ,0,=,2,24.7 ,0
2003/10/1,21:45,21.1 ,0,58.0 ,0,24.8 ,0,55.9 ,0,24.1 ,0,=,2,24.6 ,0
2003/10/1,22:00,21.1 ,0,55.0 ,0,24.8 ,0,56.1 ,0,24.1 ,0,=,2,24.5 ,0
2003/10/1,22:15,21.1 ,0,55.0 ,0,24.7 ,0,56.2 ,0,24.1 ,0,=,2,24.4 ,0
2003/10/1,22:30,21.1 ,0,54.0 ,0,24.7 ,0,56.4 ,0,24.1 ,0,=,2,24.4 ,0
2003/10/1,22:45,21.0 ,0,54.0 ,0,24.6 ,0,56.3 ,0,24.1 ,0,=,2,24.3 ,0
2003/10/1,23:00,21.0 ,0,55.0 ,0,24.6 ,0,56.3 ,0,24.1 ,0,=,2,24.2 ,0
2003/10/1,23:15,20.8 ,0,55.0 ,0,24.5 ,0,56.3 ,0,24.2 ,0,=,2,24.1 ,0
2003/10/1,23:30,20.8 ,0,56.0 ,0,24.5 ,0,56.2 ,0,24.2 ,0,=,2,24.0 ,0
2003/10/1,23:45,20.7 ,0,58.0 ,0,24.4 ,0,56.2 ,0,24.2 ,0,=,2,24.0 ,0
2003/10/2,0:00,20.3 ,0,58.0 ,0,24.4 ,0,56.2 ,0,24.2 ,0,=,2,23.9 ,0
2003/10/2,0:15,20.2 ,0,59.0 ,0,24.3 ,0,56.1 ,0,24.2 ,0,=,2,23.8 ,0
2003/10/2,0:30,19.9 ,0,59.0 ,0,24.3 ,0,56.1 ,0,24.2 ,0,=,2,23.8 ,0
2003/10/2,0:45,19.5 ,0,60.0 ,0,24.2 ,0,56.1 ,0,24.2 ,0,=,2,23.7 ,0
2003/10/2,1:00,19.5 ,0,62.0 ,0,24.2 ,0,56.1 ,0,24.2 ,0,=,2,23.6 ,0
2003/10/2,1:15,19.3 ,0,61.0 ,0,24.1 ,0,56.1 ,0,24.2 ,0,=,2,23.5 ,0
2003/10/2,1:30,19.5 ,0,57.0 ,0,24.1 ,0,56.1 ,0,24.2 ,0,=,2,23.5 ,0
2003/10/2,1:45,19.4 ,0,59.0 ,0,24.0 ,0,56.1 ,0,24.3 ,0,=,2,23.4 ,0
2003/10/2,2:00,19.3 ,0,60.0 ,0,24.0 ,0,56.3 ,0,24.2 ,0,=,2,23.3 ,0
2003/10/2,2:15,19.4 ,0,61.0 ,0,24.0 ,0,56.5 ,0,24.3 ,0,=,2,23.2 ,0
2003/10/2,2:30,19.3 ,0,63.0 ,0,23.9 ,0,56.7 ,0,22.9 ,0,=,2,23.2 ,0
2003/10/2,2:45,18.9 ,0,64.0 ,0,23.9 ,0,56.8 ,0,22.9 ,0,=,2,23.1 ,0
2003/10/2,3:00,18.9 ,0,64.0 ,0,23.9 ,0,56.8 ,0,22.9 ,0,=,2,23.1 ,0
2003/10/2,3:15,19.0 ,0,62.0 ,0,23.8 ,0,56.8 ,0,23.0 ,0,=,2,23.0 ,0
2003/10/2,3:30,19.0 ,0,65.0 ,0,23.8 ,0,57.1 ,0,23.0 ,0,=,2,23.0 ,0
2003/10/2,3:45,19.1 ,0,65.0 ,0,23.7 ,0,57.0 ,0,23.1 ,0,=,2,22.9 ,0
2003/10/2,4:00,19.1 ,0,66.0 ,0,23.7 ,0,57.0 ,0,23.1 ,0,=,2,22.9 ,0
2003/10/2,4:15,19.0 ,0,67.0 ,0,23.6 ,0,57.1 ,0,23.1 ,0,=,2,22.8 ,0
2003/10/2,4:30,19.1 ,0,67.0 ,0,23.6 ,0,57.1 ,0,23.2 ,0,=,2,22.8 ,0
2003/10/2,4:45,19.0 ,0,67.0 ,0,23.6 ,0,57.2 ,0,23.2 ,0,=,2,22.8 ,0
2003/10/2,5:00,19.1 ,0,67.0 ,0,23.5 ,0,57.2 ,0,23.2 ,0,=,2,22.7 ,0
2003/10/2,5:15,19.4 ,0,67.0 ,0,23.5 ,0,57.4 ,0,23.2 ,0,=,2,22.7 ,0
2003/10/2,5:30,19.2 ,0,68.0 ,0,23.5 ,0,57.4 ,0,23.3 ,0,=,2,22.6 ,0
2003/10/2,5:45,19.4 ,0,70.0 ,0,23.4 ,0,57.5 ,0,23.3 ,0,=,2,22.6 ,0
2003/10/2,6:00,19.8 ,0,75.0 ,0,23.4 ,0,57.5 ,0,23.3 ,0,=,2,22.6 ,0
2003/10/2,6:15,19.7 ,0,69.0 ,0,23.4 ,0,57.6 ,0,23.3 ,0,=,2,22.6 ,0
2003/10/2,6:30,19.9 ,0,75.0 ,0,23.3 ,0,57.8 ,0,23.4 ,0,=,2,22.5 ,0
2003/10/2,6:45,20.2 ,0,79.0 ,0,23.3 ,0,57.9 ,0,23.4 ,0,=,2,22.5 ,0
2003/10/2,7:00,20.5 ,0,81.0 ,0,23.3 ,0,58.1 ,0,23.4 ,0,=,2,22.5 ,0
2003/10/2,7:15,20.8 ,0,82.0 ,0,23.2 ,0,58.2 ,0,23.4 ,0,=,2,22.5 ,0
2003/10/2,7:30,21.1 ,0,82.0 ,0,23.2 ,0,58.4 ,0,23.5 ,0,=,2,22.5 ,0
2003/10/2,7:45,21.4 ,0,82.0 ,0,23.2 ,0,58.6 ,0,23.5 ,0,=,2,22.5 ,0
2003/10/2,8:00,21.7 ,0,81.0 ,0,23.2 ,0,59.4 ,0,23.5 ,0,=,2,22.5 ,0
2003/10/2,8:15,22.9 ,0,74.0 ,0,23.2 ,0,59.6 ,0,22.9 ,0,=,2,22.5 ,0
2003/10/2,8:30,23.8 ,0,67.0 ,0,23.3 ,0,59.7 ,0,22.9 ,0,=,2,22.6 ,0
2003/10/2,8:45,24.2 ,0,65.0 ,0,23.3 ,0,59.8 ,0,22.9 ,0,=,2,22.7 ,0
2003/10/2,9:00,23.6 ,0,66.0 ,0,23.4 ,0,59.9 ,0,23.0 ,0,=,2,22.7 ,0
2003/10/2,9:15,24.8 ,0,60.0 ,0,23.5 ,0,59.9 ,0,23.0 ,0,=,2,22.8 ,0
2003/10/2,9:30,24.4 ,0,58.0 ,0,23.6 ,0,59.9 ,0,23.0 ,0,=,2,22.9 ,0
2003/10/2,9:45,24.7 ,0,59.0 ,0,23.7 ,0,60.1 ,0,23.0 ,0,=,2,23.0 ,0
2003/10/2,10:00,24.8 ,0,58.0 ,0,23.8 ,0,59.9 ,0,23.1 ,0,=,2,23.2 ,0
2003/10/2,10:15,25.2 ,0,58.0 ,0,23.8 ,0,60.0 ,0,23.1 ,0,=,2,23.3 ,0
2003/10/2,10:30,25.8 ,0,57.0 ,0,23.9 ,0,59.8 ,0,23.2 ,0,=,2,23.3 ,0
2003/10/2,10:45,25.8 ,0,57.0 ,0,24.0 ,0,59.7 ,0,23.2 ,0,=,2,23.5 ,0
2003/10/2,11:00,26.3 ,0,54.0 ,0,24.1 ,0,59.6 ,0,23.2 ,0,=,2,23.6 ,0
2003/10/2,11:15,26.6 ,0,53.0 ,0,24.2 ,0,59.5 ,0,23.2 ,0,=,2,23.7 ,0
2003/10/2,11:30,26.5 ,0,52.0 ,0,24.3 ,0,59.5 ,0,23.3 ,0,=,2,23.8 ,0
2003/10/2,11:45,26.3 ,0,55.0 ,0,24.5 ,0,59.3 ,0,23.3 ,0,=,2,23.9 ,0
2003/10/2,12:00,26.5 ,0,55.0 ,0,24.6 ,0,59.1 ,0,23.3 ,0,=,2,24.1 ,0
2003/10/2,12:15,26.5 ,0,54.0 ,0,24.7 ,0,59.1 ,0,23.4 ,0,=,2,24.2 ,0
2003/10/2,12:30,26.5 ,0,55.0 ,0,24.7 ,0,59.1 ,0,23.4 ,0,=,2,24.3 ,0
2003/10/2,12:45,26.7 ,0,54.0 ,0,24.8 ,0,59.0 ,0,23.4 ,0,=,2,24.4 ,0
2003/10/2,13:00,26.7 ,0,53.0 ,0,24.9 ,0,59.1 ,0,23.5 ,0,=,2,24.5 ,0
2003/10/2,13:15,26.7 ,0,54.0 ,0,24.9 ,0,59.0 ,0,23.5 ,0,=,2,24.6 ,0
2003/10/2,13:30,26.7 ,0,53.0 ,0,25.0 ,0,59.1 ,0,23.5 ,0,=,2,24.7 ,0
2003/10/2,13:45,26.8 ,0,51.0 ,0,25.1 ,0,59.1 ,0,23.5 ,0,=,2,24.8 ,0
2003/10/2,14:00,26.5 ,0,52.0 ,0,25.1 ,0,59.2 ,0,23.6 ,0,=,2,24.9 ,0
2003/10/2,14:15,26.5 ,0,50.0 ,0,25.2 ,0,59.1 ,0,23.6 ,0,=,2,24.9 ,0
2003/10/2,14:30,26.6 ,0,50.0 ,0,25.3 ,0,59.1 ,0,23.6 ,0,=,2,25.0 ,0
2003/10/2,14:45,26.6 ,0,49.0 ,0,25.3 ,0,59.1 ,0,23.6 ,0,=,2,25.1 ,0
2003/10/2,15:00,26.6 ,0,47.0 ,0,25.4 ,0,58.8 ,0,23.7 ,0,=,2,25.2 ,0
2003/10/2,15:15,26.2 ,0,49.0 ,0,25.6 ,0,58.6 ,0,23.7 ,0,=,2,25.3 ,0
2003/10/2,15:30,26.3 ,0,50.0 ,0,25.7 ,0,58.3 ,0,23.7 ,0,=,2,25.4 ,0
2003/10/2,15:45,26.0 ,0,49.0 ,0,25.7 ,0,58.2 ,0,23.8 ,0,=,2,25.5 ,0
2003/10/2,16:00,25.5 ,0,50.0 ,0,25.8 ,0,58.1 ,0,23.8 ,0,=,2,25.6 ,0
2003/10/2,16:15,25.3 ,0,52.0 ,0,25.9 ,0,57.9 ,0,23.8 ,0,=,2,25.7 ,0
2003/10/2,16:30,25.1 ,0,51.0 ,0,25.9 ,0,57.7 ,0,23.9 ,0,=,2,25.8 ,0
2003/10/2,16:45,24.8 ,0,51.0 ,0,25.9 ,0,57.7 ,0,23.9 ,0,=,2,25.9 ,0
2003/10/2,17:00,24.4 ,0,52.0 ,0,25.9 ,0,57.6 ,0,23.9 ,0,=,2,26.0 ,0
2003/10/2,17:15,24.1 ,0,55.0 ,0,25.9 ,0,57.7 ,0,23.9 ,0,=,2,26.1 ,0
2003/10/2,17:30,23.8 ,0,55.0 ,0,25.9 ,0,57.5 ,0,23.9 ,0,=,2,26.2 ,0
2003/10/2,17:45,23.5 ,0,57.0 ,0,25.9 ,0,57.4 ,0,24.0 ,0,=,2,26.2 ,0
2003/10/2,18:00,23.0 ,0,59.0 ,0,25.9 ,0,57.4 ,0,24.0 ,0,=,2,26.2 ,0
2003/10/2,18:15,22.7 ,0,60.0 ,0,25.8 ,0,57.4 ,0,24.0 ,0,=,2,26.2 ,0
2003/10/2,18:30,22.5 ,0,61.0 ,0,25.8 ,0,57.3 ,0,24.1 ,0,=,2,26.2 ,0
2003/10/2,18:45,22.3 ,0,62.0 ,0,25.7 ,0,57.5 ,0,24.1 ,0,=,2,26.2 ,0
2003/10/2,19:00,22.2 ,0,62.0 ,0,25.6 ,0,57.6 ,0,24.1 ,0,=,2,26.1 ,0
2003/10/2,19:15,22.0 ,0,62.0 ,0,25.6 ,0,57.6 ,0,24.1 ,0,=,2,26.1 ,0
2003/10/2,19:30,21.8 ,0,62.0 ,0,25.5 ,0,57.7 ,0,24.2 ,0,=,2,25.9 ,0
2003/10/2,19:45,21.7 ,0,63.0 ,0,25.4 ,0,57.7 ,0,24.2 ,0,=,2,25.7 ,0
2003/10/2,20:00,21.7 ,0,64.0 ,0,25.4 ,0,57.9 ,0,24.2 ,0,=,2,25.5 ,0
2003/10/2,20:15,21.6 ,0,65.0 ,0,25.3 ,0,58.0 ,0,24.2 ,0,=,2,25.4 ,0
2003/10/2,20:30,21.6 ,0,65.0 ,0,25.2 ,0,58.1 ,0,24.3 ,0,=,2,25.3 ,0
2003/10/2,20:45,21.4 ,0,67.0 ,0,25.2 ,0,58.3 ,0,24.3 ,0,=,2,25.1 ,0
2003/10/2,21:00,21.1 ,0,69.0 ,0,25.1 ,0,58.4 ,0,24.3 ,0,=,2,25.0 ,0
2003/10/2,21:15,20.7 ,0,71.0 ,0,25.0 ,0,58.4 ,0,24.3 ,0,=,2,24.9 ,0
2003/10/2,21:30,20.7 ,0,72.0 ,0,25.0 ,0,58.6 ,0,24.4 ,0,=,2,24.9 ,0
2003/10/2,21:45,20.7 ,0,72.0 ,0,24.9 ,0,58.9 ,0,24.4 ,0,=,2,24.8 ,0
2003/10/2,22:00,20.5 ,0,73.0 ,0,24.9 ,0,58.9 ,0,24.4 ,0,=,2,24.7 ,0
2003/10/2,22:15,20.1 ,0,75.0 ,0,24.8 ,0,59.1 ,0,24.4 ,0,=,2,24.6 ,0
2003/10/2,22:30,19.9 ,0,77.0 ,0,24.8 ,0,59.2 ,0,24.4 ,0,=,2,24.5 ,0
2003/10/2,22:45,19.8 ,0,77.0 ,0,24.7 ,0,59.3 ,0,24.4 ,0,=,2,24.4 ,0
2003/10/2,23:00,19.8 ,0,77.0 ,0,24.7 ,0,59.6 ,0,24.5 ,0,=,2,24.4 ,0
2003/10/2,23:15,19.8 ,0,76.0 ,0,24.7 ,0,60.3 ,0,24.5 ,0,=,2,24.3 ,0
2003/10/2,23:30,19.4 ,0,78.0 ,0,24.7 ,0,60.6 ,0,24.5 ,0,=,2,24.2 ,0
2003/10/2,23:45,19.2 ,0,78.0 ,0,24.6 ,0,60.6 ,0,24.5 ,0,=,2,24.1 ,0
2003/10/3,0:00,19.1 ,0,79.0 ,0,24.6 ,0,60.5 ,0,23.2 ,0,=,2,24.0 ,0
2003/10/3,0:15,19.1 ,0,79.0 ,0,24.6 ,0,60.4 ,0,23.3 ,0,=,2,23.9 ,0
2003/10/3,0:30,18.6 ,0,81.0 ,0,24.5 ,0,60.4 ,0,23.3 ,0,=,2,23.9 ,0
2003/10/3,0:45,18.3 ,0,82.0 ,0,24.5 ,0,60.4 ,0,23.3 ,0,=,2,23.8 ,0
2003/10/3,1:00,18.3 ,0,83.0 ,0,24.5 ,0,60.4 ,0,23.4 ,0,=,2,23.7 ,0
2003/10/3,1:15,18.4 ,0,82.0 ,0,24.4 ,0,60.4 ,0,23.4 ,0,=,2,23.6 ,0
2003/10/3,1:30,18.1 ,0,82.0 ,0,24.4 ,0,60.4 ,0,23.4 ,0,=,2,23.5 ,0
2003/10/3,1:45,17.8 ,0,83.0 ,0,24.3 ,0,60.4 ,0,23.4 ,0,=,2,23.4 ,0
2003/10/3,2:00,18.1 ,0,81.0 ,0,24.3 ,0,60.4 ,0,23.5 ,0,=,2,23.3 ,0
2003/10/3,2:15,18.1 ,0,79.0 ,0,24.2 ,0,60.4 ,0,23.5 ,0,=,2,23.3 ,0
2003/10/3,2:30,18.3 ,0,76.0 ,0,24.1 ,0,60.5 ,0,23.5 ,0,=,2,23.2 ,0
2003/10/3,2:45,18.2 ,0,76.0 ,0,24.1 ,0,60.5 ,0,23.6 ,0,=,2,23.1 ,0
2003/10/3,3:00,18.1 ,0,75.0 ,0,24.0 ,0,60.6 ,0,23.6 ,0,=,2,23.0 ,0
2003/10/3,3:15,17.8 ,0,78.0 ,0,24.0 ,0,60.5 ,0,23.6 ,0,=,2,23.0 ,0
2003/10/3,3:30,17.2 ,0,77.0 ,0,23.9 ,0,60.5 ,0,23.7 ,0,=,2,22.9 ,0
2003/10/3,3:45,17.2 ,0,75.0 ,0,23.9 ,0,60.4 ,0,23.7 ,0,=,2,22.9 ,0
2003/10/3,4:00,17.6 ,0,72.0 ,0,23.8 ,0,60.4 ,0,23.7 ,0,=,2,22.8 ,0
2003/10/3,4:15,17.5 ,0,73.0 ,0,23.8 ,0,60.5 ,0,23.7 ,0,=,2,22.7 ,0
2003/10/3,4:30,17.5 ,0,73.0 ,0,23.7 ,0,60.4 ,0,23.7 ,0,=,2,22.6 ,0
2003/10/3,4:45,17.5 ,0,72.0 ,0,23.6 ,0,60.4 ,0,23.8 ,0,=,2,22.6 ,0
2003/10/3,5:00,17.7 ,0,71.0 ,0,23.6 ,0,60.3 ,0,23.8 ,0,=,2,22.5 ,0
2003/10/3,5:15,17.8 ,0,72.0 ,0,23.5 ,0,60.3 ,0,23.8 ,0,=,2,22.5 ,0
2003/10/3,5:30,17.7 ,0,74.0 ,0,23.5 ,0,60.3 ,0,23.8 ,0,=,2,22.4 ,0
2003/10/3,5:45,17.7 ,0,73.0 ,0,23.4 ,0,60.2 ,0,23.8 ,0,=,2,22.3 ,0
2003/10/3,6:00,17.9 ,0,74.0 ,0,23.4 ,0,60.2 ,0,23.9 ,0,=,2,22.3 ,0
2003/10/3,6:15,17.7 ,0,74.0 ,0,23.3 ,0,60.2 ,0,23.9 ,0,=,2,22.3 ,0
2003/10/3,6:30,17.8 ,0,73.0 ,0,23.3 ,0,60.3 ,0,23.9 ,0,=,2,22.2 ,0
2003/10/3,6:45,17.9 ,0,71.0 ,0,23.2 ,0,60.3 ,0,23.9 ,0,=,2,22.2 ,0
2003/10/3,7:00,18.1 ,0,72.0 ,0,23.2 ,0,60.4 ,0,23.9 ,0,=,2,22.1 ,0
2003/10/3,7:15,18.2 ,0,74.0 ,0,23.2 ,0,60.5 ,0,23.9 ,0,=,2,22.1 ,0
2003/10/3,7:30,18.5 ,0,72.0 ,0,23.1 ,0,60.5 ,0,24.0 ,0,=,2,22.1 ,0
2003/10/3,7:45,18.7 ,0,71.0 ,0,23.1 ,0,60.5 ,0,24.0 ,0,=,2,22.0 ,0
2003/10/3,8:00,19.0 ,0,69.0 ,0,23.1 ,0,60.7 ,0,24.0 ,0,=,2,22.0 ,0
2003/10/3,8:15,19.8 ,0,69.0 ,0,23.1 ,0,61.2 ,0,23.2 ,0,=,2,22.0 ,0
2003/10/3,8:30,21.0 ,0,62.0 ,0,23.0 ,0,61.2 ,0,23.2 ,0,=,2,22.0 ,0
2003/10/3,8:45,22.2 ,0,53.0 ,0,23.0 ,0,61.1 ,0,23.2 ,0,=,2,22.0 ,0
2003/10/3,9:00,22.9 ,0,50.0 ,0,23.1 ,0,61.0 ,0,23.2 ,0,=,2,22.1 ,0
2003/10/3,9:15,23.4 ,0,49.0 ,0,23.2 ,0,60.7 ,0,23.3 ,0,=,2,22.2 ,0
2003/10/3,9:30,23.8 ,0,49.0 ,0,23.3 ,0,60.6 ,0,23.3 ,0,=,2,22.4 ,0
2003/10/3,9:45,24.4 ,0,49.0 ,0,23.4 ,0,60.2 ,0,23.3 ,0,=,2,22.5 ,0
2003/10/3,10:00,24.6 ,0,49.0 ,0,23.6 ,0,59.8 ,0,23.3 ,0,=,2,22.7 ,0
2003/10/3,10:15,25.3 ,0,47.0 ,0,23.7 ,0,59.5 ,0,23.4 ,0,=,2,22.8 ,0
2003/10/3,10:30,25.7 ,0,45.0 ,0,23.9 ,0,59.0 ,0,23.4 ,0,=,2,23.0 ,0
2003/10/3,10:45,25.4 ,0,46.0 ,0,24.0 ,0,58.6 ,0,23.4 ,0,=,2,23.2 ,0
2003/10/3,11:00,25.9 ,0,44.0 ,0,24.1 ,0,58.3 ,0,23.4 ,0,=,2,23.3 ,0
2003/10/3,11:15,25.9 ,0,43.0 ,0,24.3 ,0,58.0 ,0,23.5 ,0,=,2,23.5 ,0
2003/10/3,11:30,26.0 ,0,42.0 ,0,24.3 ,0,57.9 ,0,23.5 ,0,=,2,23.6 ,0
2003/10/3,11:45,26.0 ,0,41.0 ,0,24.4 ,0,57.6 ,0,23.5 ,0,=,2,23.8 ,0
2003/10/3,12:00,26.1 ,0,41.0 ,0,24.6 ,0,57.4 ,0,23.5 ,0,=,2,23.9 ,0
2003/10/3,12:15,26.2 ,0,40.0 ,0,24.7 ,0,57.0 ,0,23.5 ,0,=,2,24.1 ,0
2003/10/3,12:30,26.2 ,0,40.0 ,0,24.8 ,0,56.7 ,0,23.6 ,0,=,2,24.2 ,0
2003/10/3,12:45,26.2 ,0,41.0 ,0,25.0 ,0,56.3 ,0,23.6 ,0,=,2,24.4 ,0
2003/10/3,13:00,26.2 ,0,41.0 ,0,25.1 ,0,55.9 ,0,23.6 ,0,=,2,24.5 ,0
2003/10/3,13:15,26.2 ,0,42.0 ,0,25.2 ,0,55.6 ,0,23.6 ,0,=,2,24.7 ,0
2003/10/3,13:30,26.2 ,0,42.0 ,0,25.3 ,0,55.3 ,0,23.6 ,0,=,2,24.8 ,0
2003/10/3,13:45,26.3 ,0,42.0 ,0,25.5 ,0,55.1 ,0,23.7 ,0,=,2,24.9 ,0
2003/10/3,14:00,26.1 ,0,42.0 ,0,25.6 ,0,54.8 ,0,23.7 ,0,=,2,25.0 ,0
2003/10/3,14:15,25.8 ,0,42.0 ,0,25.7 ,0,54.5 ,0,23.7 ,0,=,2,25.1 ,0
2003/10/3,14:30,25.6 ,0,41.0 ,0,25.8 ,0,54.4 ,0,23.7 ,0,=,2,25.3 ,0
2003/10/3,14:45,25.4 ,0,41.0 ,0,25.8 ,0,54.3 ,0,23.7 ,0,=,2,25.4 ,0
2003/10/3,15:00,25.3 ,0,40.0 ,0,25.9 ,0,54.1 ,0,23.7 ,0,=,2,25.5 ,0
2003/10/3,15:15,25.1 ,0,40.0 ,0,25.9 ,0,54.0 ,0,23.8 ,0,=,2,25.6 ,0
2003/10/3,15:30,24.9 ,0,42.0 ,0,26.0 ,0,54.0 ,0,23.8 ,0,=,2,25.7 ,0
2003/10/3,15:45,24.5 ,0,43.0 ,0,26.0 ,0,53.8 ,0,23.8 ,0,=,2,25.8 ,0
2003/10/3,16:00,24.5 ,0,41.0 ,0,26.1 ,0,53.7 ,0,23.8 ,0,=,2,25.9 ,0
2003/10/3,16:15,24.2 ,0,42.0 ,0,26.1 ,0,53.6 ,0,23.8 ,0,=,2,26.0 ,0
2003/10/3,16:30,24.0 ,0,45.0 ,0,26.0 ,0,53.7 ,0,23.9 ,0,=,2,26.0 ,0
2003/10/3,16:45,23.7 ,0,47.0 ,0,26.0 ,0,53.5 ,0,23.9 ,0,=,2,26.1 ,0
2003/10/3,17:00,23.6 ,0,47.0 ,0,26.0 ,0,53.5 ,0,23.9 ,0,=,2,26.2 ,0
2003/10/3,17:15,23.2 ,0,47.0 ,0,25.9 ,0,53.4 ,0,23.9 ,0,=,2,26.2 ,0
2003/10/3,17:30,22.9 ,0,51.0 ,0,25.9 ,0,53.4 ,0,23.9 ,0,=,2,26.2 ,0
2003/10/3,17:45,22.8 ,0,52.0 ,0,25.8 ,0,53.4 ,0,24.0 ,0,=,2,26.2 ,0
2003/10/3,18:00,22.6 ,0,52.0 ,0,25.8 ,0,53.3 ,0,24.0 ,0,=,2,26.2 ,0
2003/10/3,18:15,22.4 ,0,53.0 ,0,25.7 ,0,53.4 ,0,24.0 ,0,=,2,26.1 ,0
2003/10/3,18:30,22.1 ,0,54.0 ,0,25.6 ,0,53.6 ,0,24.0 ,0,=,2,26.1 ,0
2003/10/3,18:45,22.0 ,0,53.0 ,0,25.6 ,0,53.6 ,0,24.0 ,0,=,2,26.1 ,0
2003/10/3,19:00,21.9 ,0,55.0 ,0,25.5 ,0,53.8 ,0,24.0 ,0,=,2,26.0 ,0
2003/10/3,19:15,21.7 ,0,56.0 ,0,25.4 ,0,53.9 ,0,24.1 ,0,=,2,26.0 ,0
2003/10/3,19:30,21.6 ,0,57.0 ,0,25.4 ,0,54.0 ,0,24.1 ,0,=,2,25.7 ,0
2003/10/3,19:45,21.4 ,0,58.0 ,0,25.3 ,0,54.2 ,0,24.1 ,0,=,2,25.5 ,0
2003/10/3,20:00,21.3 ,0,56.0 ,0,25.2 ,0,54.3 ,0,24.1 ,0,=,2,25.4 ,0
2003/10/3,20:15,21.2 ,0,57.0 ,0,25.1 ,0,54.4 ,0,24.1 ,0,=,2,25.2 ,0
2003/10/3,20:30,21.2 ,0,58.0 ,0,25.0 ,0,54.5 ,0,24.1 ,0,=,2,25.1 ,0
2003/10/3,20:45,21.0 ,0,56.0 ,0,24.9 ,0,54.7 ,0,24.2 ,0,=,2,24.9 ,0
2003/10/3,21:00,20.8 ,0,54.0 ,0,24.9 ,0,54.7 ,0,24.1 ,0,=,2,24.8 ,0
2003/10/3,21:15,20.8 ,0,53.0 ,0,24.8 ,0,55.1 ,0,24.2 ,0,=,2,24.7 ,0
2003/10/3,21:30,20.7 ,0,51.0 ,0,24.8 ,0,55.1 ,0,24.2 ,0,=,2,24.7 ,0
2003/10/3,21:45,20.7 ,0,50.0 ,0,24.8 ,0,55.2 ,0,24.2 ,0,=,2,24.6 ,0
2003/10/3,22:00,20.6 ,0,51.0 ,0,24.7 ,0,55.2 ,0,24.2 ,0,=,2,24.5 ,0
2003/10/3,22:15,20.5 ,0,52.0 ,0,24.7 ,0,54.9 ,0,24.2 ,0,=,2,24.4 ,0
2003/10/3,22:30,20.6 ,0,51.0 ,0,24.6 ,0,54.9 ,0,24.2 ,0,=,2,24.3 ,0
2003/10/3,22:45,20.5 ,0,52.0 ,0,24.6 ,0,54.7 ,0,24.2 ,0,=,2,24.2 ,0
2003/10/3,23:00,20.5 ,0,51.0 ,0,24.5 ,0,54.7 ,0,24.3 ,0,=,2,24.2 ,0
2003/10/3,23:15,20.4 ,0,49.0 ,0,24.4 ,0,54.1 ,0,24.3 ,0,=,2,24.1 ,0
2003/10/3,23:30,20.3 ,0,49.0 ,0,24.4 ,0,54.0 ,0,22.9 ,0,=,2,24.0 ,0
2003/10/3,23:45,20.2 ,0,51.0 ,0,24.4 ,0,54.4 ,0,22.9 ,0,=,2,23.9 ,0
2003/10/4,0:00,20.0 ,0,50.0 ,0,24.5 ,0,54.5 ,0,22.9 ,0,=,2,23.9 ,0
2003/10/4,0:15,19.9 ,0,51.0 ,0,24.5 ,0,54.4 ,0,23.0 ,0,=,2,23.8 ,0
2003/10/4,0:30,19.9 ,0,51.0 ,0,24.5 ,0,54.3 ,0,23.0 ,0,=,2,23.7 ,0
2003/10/4,0:45,19.9 ,0,51.0 ,0,24.4 ,0,54.2 ,0,23.0 ,0,=,2,23.7 ,0
2003/10/4,1:00,19.8 ,0,52.0 ,0,24.4 ,0,54.5 ,0,23.1 ,0,=,2,23.6 ,0
2003/10/4,1:15,19.7 ,0,54.0 ,0,24.4 ,0,54.4 ,0,23.1 ,0,=,2,23.6 ,0
2003/10/4,1:30,19.8 ,0,55.0 ,0,24.4 ,0,54.2 ,0,23.1 ,0,=,2,23.5 ,0
2003/10/4,1:45,19.8 ,0,56.0 ,0,24.3 ,0,54.1 ,0,23.2 ,0,=,2,23.5 ,0
2003/10/4,2:00,19.8 ,0,57.0 ,0,24.2 ,0,54.3 ,0,23.2 ,0,=,2,23.4 ,0
2003/10/4,2:15,19.4 ,0,59.0 ,0,24.2 ,0,54.2 ,0,23.2 ,0,=,2,23.3 ,0
2003/10/4,2:30,18.9 ,0,60.0 ,0,24.1 ,0,54.2 ,0,23.3 ,0,=,2,23.3 ,0
2003/10/4,2:45,18.8 ,0,62.0 ,0,24.0 ,0,54.3 ,0,23.3 ,0,=,2,23.2 ,0
2003/10/4,3:00,18.7 ,0,64.0 ,0,24.0 ,0,54.4 ,0,23.3 ,0,=,2,23.2 ,0
2003/10/4,3:15,18.7 ,0,64.0 ,0,23.9 ,0,54.5 ,0,23.3 ,0,=,2,23.1 ,0
2003/10/4,3:30,19.0 ,0,62.0 ,0,23.9 ,0,54.5 ,0,23.3 ,0,=,2,23.0 ,0
2003/10/4,3:45,19.3 ,0,60.0 ,0,23.8 ,0,54.7 ,0,23.4 ,0,=,2,23.0 ,0
2003/10/4,4:00,19.4 ,0,59.0 ,0,23.8 ,0,54.7 ,0,23.4 ,0,=,2,22.9 ,0
2003/10/4,4:15,19.4 ,0,59.0 ,0,23.7 ,0,55.0 ,0,23.4 ,0,=,2,22.9 ,0
2003/10/4,4:30,19.3 ,0,59.0 ,0,23.7 ,0,55.1 ,0,23.4 ,0,=,2,22.8 ,0
2003/10/4,4:45,19.4 ,0,58.0 ,0,23.6 ,0,55.2 ,0,23.5 ,0,=,2,22.8 ,0
2003/10/4,5:00,19.7 ,0,58.0 ,0,23.6 ,0,55.4 ,0,23.5 ,0,=,2,22.8 ,0
2003/10/4,5:15,19.8 ,0,60.0 ,0,23.6 ,0,55.4 ,0,23.5 ,0,=,2,22.7 ,0
2003/10/4,5:30,19.8 ,0,57.0 ,0,23.5 ,0,55.5 ,0,23.5 ,0,=,2,22.7 ,0
2003/10/4,5:45,19.9 ,0,59.0 ,0,23.5 ,0,55.5 ,0,23.5 ,0,=,2,22.6 ,0
2003/10/4,6:00,19.9 ,0,58.0 ,0,23.4 ,0,55.6 ,0,23.5 ,0,=,2,22.6 ,0
2003/10/4,6:15,19.9 ,0,60.0 ,0,23.4 ,0,55.7 ,0,23.6 ,0,=,2,22.6 ,0
2003/10/4,6:30,20.1 ,0,61.0 ,0,23.3 ,0,55.7 ,0,23.6 ,0,=,2,22.6 ,0
2003/10/4,6:45,20.5 ,0,61.0 ,0,23.3 ,0,55.8 ,0,23.6 ,0,=,2,22.6 ,0
2003/10/4,7:00,20.2 ,0,62.0 ,0,23.3 ,0,55.8 ,0,23.6 ,0,=,2,22.5 ,0
2003/10/4,7:15,20.5 ,0,59.0 ,0,23.3 ,0,55.9 ,0,23.6 ,0,=,2,22.5 ,0
2003/10/4,7:30,20.9 ,0,57.0 ,0,23.2 ,0,56.0 ,0,23.6 ,0,=,2,22.5 ,0
2003/10/4,7:45,21.5 ,0,55.0 ,0,23.2 ,0,56.1 ,0,23.6 ,0,=,2,22.5 ,0
2003/10/4,8:00,22.0 ,0,55.0 ,0,23.2 ,0,56.2 ,0,23.7 ,0,=,2,22.6 ,0
2003/10/4,8:15,22.6 ,0,52.0 ,0,23.2 ,0,56.3 ,0,23.7 ,0,=,2,22.7 ,0
2003/10/4,8:30,22.7 ,0,51.0 ,0,23.2 ,0,56.3 ,0,23.7 ,0,=,2,22.7 ,0
2003/10/4,8:45,22.9 ,0,50.0 ,0,23.2 ,0,56.3 ,0,23.7 ,0,=,2,22.8 ,0
2003/10/4,9:00,22.9 ,0,49.0 ,0,23.2 ,0,56.3 ,0,23.7 ,0,=,2,22.9 ,0
2003/10/4,9:15,22.8 ,0,51.0 ,0,23.2 ,0,56.4 ,0,23.7 ,0,=,2,22.9 ,0
2003/10/4,9:30,22.7 ,0,50.0 ,0,23.3 ,0,56.8 ,0,22.5 ,0,=,2,23.0 ,0
2003/10/4,9:45,22.8 ,0,50.0 ,0,23.5 ,0,56.8 ,0,22.5 ,0,=,2,23.1 ,0
2003/10/4,10:00,23.6 ,0,48.0 ,0,23.5 ,0,57.0 ,0,22.6 ,0,=,2,23.2 ,0
2003/10/4,10:15,23.6 ,0,47.0 ,0,23.6 ,0,56.7 ,0,22.6 ,0,=,2,23.3 ,0
2003/10/4,10:30,23.7 ,0,47.0 ,0,23.8 ,0,56.4 ,0,22.6 ,0,=,2,23.4 ,0
2003/10/4,10:45,23.7 ,0,47.0 ,0,23.9 ,0,56.4 ,0,22.7 ,0,=,2,23.5 ,0
2003/10/4,11:00,24.1 ,0,46.0 ,0,24.0 ,0,56.2 ,0,22.7 ,0,=,2,23.6 ,0
2003/10/4,11:15,24.3 ,0,46.0 ,0,24.2 ,0,55.8 ,0,24.0 ,0,=,2,23.7 ,0
2003/10/4,11:30,24.3 ,0,45.0 ,0,24.3 ,0,55.7 ,0,24.0 ,0,=,2,23.8 ,0
2003/10/4,11:45,24.1 ,0,45.0 ,0,24.4 ,0,55.0 ,0,24.0 ,0,=,2,23.9 ,0
2003/10/4,12:00,24.6 ,0,42.0 ,0,24.6 ,0,54.3 ,0,24.0 ,0,=,2,24.0 ,0
2003/10/4,12:15,24.9 ,0,43.0 ,0,24.6 ,0,53.9 ,0,24.1 ,0,=,2,24.1 ,0
2003/10/4,12:30,24.5 ,0,45.0 ,0,24.7 ,0,53.7 ,0,24.1 ,0,=,2,24.2 ,0
2003/10/4,12:45,24.2 ,0,46.0 ,0,24.9 ,0,53.2 ,0,24.1 ,0,=,2,24.3 ,0
2003/10/4,13:00,23.9 ,0,46.0 ,0,25.0 ,0,53.1 ,0,24.1 ,0,=,2,24.4 ,0
2003/10/4,13:15,23.8 ,0,47.0 ,0,25.1 ,0,53.3 ,0,23.0 ,0,=,2,24.5 ,0
2003/10/4,13:30,23.5 ,0,49.0 ,0,25.1 ,0,53.3 ,0,23.0 ,0,=,2,24.6 ,0
2003/10/4,13:45,23.4 ,0,49.0 ,0,25.2 ,0,53.1 ,0,23.1 ,0,=,2,24.6 ,0
2003/10/4,14:00,23.2 ,0,49.0 ,0,25.2 ,0,53.3 ,0,23.1 ,0,=,2,24.7 ,0
2003/10/4,14:15,23.1 ,0,48.0 ,0,25.2 ,0,53.3 ,0,23.1 ,0,=,2,24.7 ,0
2003/10/4,14:30,23.1 ,0,48.0 ,0,25.2 ,0,53.3 ,0,23.1 ,0,=,2,24.8 ,0